www.pogodaiklimat.ru

Погода и климат >> Архив погоды >> Иран >> Khark


ПОГОДА в Khark

  • Прогноз погоды в Khark
  • Монитор погоды в Khark
  • Климат города

АРХИВ ПОГОДЫ в Khark

Время (UTC), дата Ветер
(напр.,м/с)
 
Видим.   Явления Облачность Т
(С)
Тd
(С)
f
(%)
Тe
(С)
Тes
(С)
Комфортность P
(гПа)
Po
(гПа)
Тmin
(С)
Tmax
(С)
R
(мм)
R24
(мм)
S
(см)
03 19.09 штиль 0 7000 м дымка ясно +31.0 +28.6 87 +53 +53 опасность
перегрева
1006.3 1005.8 +30.6
06 19.09 В 3 8000 м мгла ясно +34.9 +30.6 78 +64 +72 опасность
перегрева
1007.5 1007.0
09 19.09 СЗ 3 8000 м мгла ясно +36.0 +30.7 74 +65 +79 опасность
перегрева
1006.5 1006.0
12 19.09 З 4 10 км ясно +36.7 +28.7 64 +59 +64 опасность
перегрева
1005.1 1004.6
15 19.09 З 2 10 км ясно +33.6 +29.2 78 +58 +58 опасность
перегрева
1005.5 1005.0 +37.6
03 20.09 З 2 7000 м дымка ясно +30.3 +28.5 90 +51 +51 опасность
перегрева
1005.3 1004.8 +29.3
06 20.09 СЗ 5 8000 м дымка 1/1 600 м
[St]
+34.2 +30.2 80 +62 +67 опасность
перегрева
1007.1 1006.6
09 20.09 СЗ 4 8000 м мгла ясно +35.2 +30.3 76 +63 +74 опасность
перегрева
1005.8 1005.3
12 20.09 З 5 10 км ясно +35.9 +29.6 70 +61 +65 опасность
перегрева
1003.9 1003.4
15 20.09 З 4 8000 м мгла ясно +34.9 +27.6 66 +54 +54 опасность
перегрева
1003.1 1002.6 +36.5
03 21.09 З 2 4000 м дымка ясно +32.5 +29.8 86 +59 +59 опасность
перегрева
1005.4 1004.9 +32.2
06 21.09 С 2 6000 м мгла ясно +35.6 +30.1 73 +63 +72 опасность
перегрева
1006.9 1006.4
09 21.09 ЮВ 3 7000 м мгла ясно +37.2 +30.7 70 +67 +80 опасность
перегрева
1006.4 1005.9
12 21.09 З 3 10 км ясно +38.4 +29.1 59 +61 +67 опасность
перегрева
1005.4 1004.9
15 21.09 З 3 10 км ясно +35.6 +26.2 58 +51 +51 опасность
перегрева
1004.9 1004.4 +39.5
03 22.09 штиль 0 4000 м дымка ясно +30.5 +29.1 92 +53 +53 опасность
перегрева
1006.9 1006.4 +30.4
06 22.09 ЮВ 3 5000 м мгла ясно +35.0 +28.8 70 +58 +66 опасность
перегрева
1008.4 1007.9
09 22.09 ЮВ 4 5000 м мгла ясно +36.3 +29.3 67 +60 +71 опасность
перегрева
1007.4 1006.9
12 22.09 З 3 10 км ясно +36.5 +27.9 61 +56 +62 опасность
перегрева
1006.3 1005.8
15 22.09 штиль 0 10 км ясно +34.3 +25.0 58 +48 +48 опасность
перегрева
1006.3 1005.8 +38.2
03 23.09 штиль 0 8000 м дымка ясно +29.5 +27.5 89 +48 +48 опасность
перегрева
1007.4 1006.9 +28.3
06 23.09 ЮВ 3 6000 м мгла ясно +34.1 +29.8 78 +60 +68 опасность
перегрева
1009.1 1008.6
09 23.09 СЗ 3 8000 м мгла ясно +35.8 +30.8 76 +66 +79 опасность
перегрева
1008.5 1008.0
12 23.09 З 4 10 км ясно +36.9 +29.8 67 +63 +67 опасность
перегрева
1007.1 1006.6
15 23.09 З 2 10 км ясно +34.5 +28.3 70 +56 +56 опасность
перегрева
1006.8 1006.3 +38.8
03 24.09 штиль 0 8000 м дымка ясно +29.5 +27.5 89 +48 +48 опасность
перегрева
1007.3 1006.8 +29.4
06 24.09 В 2 10 км ясно +34.0 +30.7 83 +64 +73 опасность
перегрева
1009.2 1008.7
09 24.09 СЗ 3 10 км ясно +36.0 +26.6 59 +53 +67 опасность
перегрева
1008.3 1007.8
12 24.09 СЗ 4 10 км ясно +37.9 +21.1 38 +45 +49 опасность
перегрева
1007.0 1006.5
15 24.09 СЗ 3 4000 м пыль ясно +35.4 +25.6 57 +50 +50 опасность
перегрева
1006.7 1006.2 +38.0
03 25.09 СЗ 5 7000 м пыль ясно +33.7 +22.4 52 +43 +43 опасность
перегрева
1006.8 1006.3 +33.2
06 25.09 СЗ 5 10 км ясно +35.5 +20.7 42 +42 +47 опасность
перегрева
1008.3 1007.8
09 25.09 З 4 10 км ясно +37.0 +21.2 40 +44 +55 опасность
перегрева
1008.1 1007.6
12 25.09 СЗ 5 10 км ясно +36.2 +21.9 44 +45 +48 опасность
перегрева
1005.2 1004.7
15 25.09 СЗ 2 10 км ясно +33.6 +22.8 53 +43 +43 опасность
перегрева
1004.8 1004.3 +37.5

 

Местоположение метеостанции Khark (Иран): широта 29.26 долгота 50.32 высота над уровнем моря 3 м.

В архиве по умолчанию представлена погода в Khark за последнюю неделю. Архивные данные за месяц целиком и за предыдущие месяцы, начиная с января 2011 года, Вы можете получить, выбрав интересующий диапазон дат из раскрывающегося списка и нажав кнопку "Ввод!".


*Определитесь, кто Вы:
робот инопланетянин человек

Внимание! Время в таблицах - всемирное. Для получения местного времени необходимо прибавить поправку, которая в Khark равна 3.5 ч.

Смотрите также архив погоды в соседних городах и на ближайших метеорологических станциях:

Погода в Bushehr Airport (Иран) (59 км)
Погода в Bushehr (Иран) (62 км)
Погода в Gach Saran (Иран) (137 км)
Погода в Nuwasib (Кувейт) (175 км)
Погода в Umm-Al-Maradim (Кувейт) (175 км)
Погода в Omidieh (Иран) (179 км)
Погода в Fao (Ирак) (193 км)
Погода в Bubiyan (Кувейт) (196 км)
Погода в Yasuj (Иран) (198 км)
Погода в Failaka Island (Кувейт) (199 км)

Пояснения к столбцам:

Ветер - указаны скорость ветра в м/с - средняя за 10 мин, порывы в срок и между сроками (в фигурных скобках) и направление, откуда дует ветер: С - северный, СВ - северо-восточный, В - восточный, ЮВ - юго-восточный, Ю - южный, ЮЗ - юго-западный, З - западный, СЗ - северо-западный.
Видимость - горизонтальная дальность видимости в метрах или километрах. При видимости от 1 до 10 км при отсутствии осадков обычно наблюдается дымка, при ухудшении видимости до 1 км и менее - туман. В сухую погоду видимость может ухудшаться дымом, пылью или мглою.
Явления - указаны атмосферные явления, наблюдавшиеся в срок или в последний час перед сроком; фигурными скобками обозначены явления, наблюдавшиеся между сроками (за 1-3 часа до срока); квадратными скобками обозначены град или гололедные отложения с указанием их диаметра в мм.
Облачность - указаны через наклонную черту общая и нижняя облачность в баллах и высота нижней границы облаков в метрах; квадратными скобками обозначены формы облаков: Ci - перистые, Cs - перисто-слоистые, Cc - перисто-кучевые, Ac - высококучевые, As - высокослоистые, Sc - слоисто-кучевые, Ns - слоисто-дождевые, Cu - кучевые, Cb - кучево-дождевые. Подробнее классификацию облаков см. в Атласе облаков (PDF).
T - Температура воздуха - температура, измеренная на высоте 2 м над землей.
Td - Температура точки росы - температура, при понижении до которой содержащийся в воздухе водяной пар достигнет насыщения.
f - Относительная влажность воздуха - влажноcть воздуха, измеренная на высоте 2 м над землей.
Te - Эффективная температура - температура, которую ощущает одетый по сезону человек в тени. Характеристика душности погоды. При расчете учитывается влияние влажности воздуха и скорости ветра на теплоощущения человека.
Tes - Эффективная температура на солнце - температура, которую ощущает человек, с поправкой на солнечный нагрев. Характеристика знойности погоды. Зависит от высоты солнца над горизонтом, облачности и скорости ветра. Ночью, в пасмурную погоду, а также при ветре 12 м/с и более поправка равна нулю.
P - Атмосферное давление - приведенное к уровню моря атмосферное давление.
Po - Атмосферное давление - измеренное на уровне метеостанции атмосферное давление.
Tmin - Минимальная температура - минимум температуры воздуха на высоте 2 м над землей.
Tmax - Максимальная температура - максимум температуры воздуха на высоте 2 м над землей.
R - Количество осадков - Количество выпавших осадков за период времени, мм. При наведении курсора мыши на число - период времени, за который выпало указанное количество осадков.
R24 - Количество осадков - Количество выпавших осадков за 24 часа, мм.
S - Снежный покров - Высота снежного покрова, см. При наведении курсора мыши на число - состояние снежного покрова и степень покрытия местности в баллах.